GW2622 Weather Reports


time (UTC)temp
F
wind
direction
speed
knots
gust
knots
rain 1hr
in
rain 24hr
in
rain mn
in
humidity
%
barometer
mb
20260901141033 80 228 3.5 6.1 0.00 0.00 0.00 81 1015.0
20260901140531 80 172 2.6 4.3 0.00 0.00 0.00 81 1015.1
20260901140021 80 245 1.7 4.3 0.00 0.00 0.00 82 1015.0
20260901135520 79 212 3.5 4.3 0.00 0.00 0.00 83 1015.2
20260901135016 79 213 3.5 5.2 0.00 0.00 0.00 85 1015.1
20260901134512 78 253 1.7 2.6 0.00 0.00 0.00 85 1015.0
20260901134006 78 186 2.6 4.3 0.00 0.00 0.00 86 1015.1
20260901133505 78 239 1.7 4.3 0.00 0.00 0.00 86 1015.1
20260901133003 78 236 1.7 2.6 0.00 0.00 0.00 88 1015.0
20260901132458 77 188 1.7 2.6 0.00 0.00 0.00 88 1015.2
20260901131956 77 248 0.9 2.6 0.00 0.00 0.00 89 1015.1
20260901131451 77 189 2.6 2.6 0.00 0.00 0.00 89 1015.1
20260901130947 77 221 1.7 2.6 0.00 0.00 0.00 89 1015.2
20260901130441 77 249 2.6 4.3 0.00 0.00 0.00 88 1015.1
20260901125939 77 263 0.9 2.6 0.00 0.00 0.00 91 1015.3
20260901125438 77 190 1.7 2.6 0.00 0.00 0.00 92 1015.2
20260901124933 77 195 2.6 2.6 0.00 0.00 0.00 92 1015.2
20260901124428 77 195 2.6 2.6 0.00 0.00 0.00 92 1015.2
20260901123923 76 235 1.7 1.7 0.00 0.00 0.00 93 1015.2
20260901123418 76 203 1.7 1.7 0.00 0.00 0.00 93 1015.0
20260901122916 76 261 0.9 0.9 0.00 0.00 0.00 93 1015.1
20260901122411 76 204 0.9 1.7 0.00 0.00 0.00 94 1014.9
20260901121910 75 269 0.0 0.9 0.00 0.00 0.00 94 1014.9
20260901121405 75 233 0.9 2.6 0.00 0.00 0.00 94 1014.9
20260901120901 75 247 0.9 1.7 0.00 0.00 0.00 95 1015.0
20260901120355 75 265 0.0 1.7 0.00 0.00 0.00 96 1015.0
20260901115850 74 241 0.9 0.9 0.00 0.00 0.00 98 1015.1
20260901115345 74 213 1.7 1.7 0.00 0.00 0.00 98 1015.0
20260901114843 74 189 1.7 1.7 0.00 0.00 0.00 99 1014.7
20260901114338 74 232 0.9 1.7 0.00 0.00 0.00 99 1014.7
20260901113836 74 188 0.9 2.6 0.00 0.00 0.00 99 1014.7
20260901113335 74 185 1.7 2.6 0.00 0.00 0.00 99 1014.6
20260901112831 75 189 2.6 2.6 0.00 0.00 0.00 99 1014.8
20260901112330 75 178 2.6 2.6 0.00 0.00 0.00 99 1014.7
20260901111825 75 189 1.7 2.6 0.00 0.00 0.00 99 1014.6
20260901111324 75 181 1.7 2.6 0.00 0.00 0.00 99 1014.6
20260901110823 74 258 0.0 0.0 0.00 0.00 0.00 99 1014.8
20260901110319 75 249 0.9 0.9 0.00 0.00 0.00 99 1014.7
20260901105815 75 264 0.9 0.9 0.00 0.00 0.00 99 1014.8
20260901105314 75 269 0.0 1.7 0.00 0.00 0.00 99 1014.6
20260901104811 74 204 0.9 1.7 0.00 0.00 0.00 99 1014.5
20260901104306 74 186 1.7 1.7 0.00 0.00 0.00 99 1014.5
20260901103801 74 245 0.9 1.7 0.00 0.00 0.00 99 1014.6
20260901103255 75 201 0.9 1.7 0.00 0.00 0.00 99 1014.7
20260901102750 75 187 1.7 2.6 0.00 0.00 0.00 99 1014.7
20260901102250 75 205 1.7 2.6 0.00 0.00 0.00 99 1014.7
20260901101746 74 252 1.7 1.7 0.00 0.00 0.00 99 1014.7
20260901101245 74 271 0.0 0.9 0.00 0.00 0.00 99 1014.6
20260901100745 74 297 0.0 0.0 0.00 0.00 0.00 99 1014.7
20260901100240 74 297 0.0 0.0 0.00 0.00 0.00 99 1014.5
20260901095738 74 297 0.0 0.0 0.00 0.00 0.00 99 1014.5
20260901095236 74 297 0.0 0.0 0.00 0.00 0.00 99 1014.5
20260901094731 74 297 0.0 0.0 0.00 0.00 0.00 99 1014.5
20260901094226 75 297 0.0 0.0 0.00 0.00 0.00 99 1014.4
20260901093721 75 305 0.0 0.0 0.00 0.00 0.00 99 1014.6
20260901093220 74 335 0.9 0.9 0.00 0.00 0.00 99 1014.4
20260901092716 75 32 0.9 0.9 0.00 0.00 0.00 99 1014.4
20260901092212 75 346 0.0 0.9 0.00 0.00 0.00 99 1014.4
20260901091707 74 310 0.0 0.9 0.00 0.00 0.00 99 1014.3
20260901091202 74 330 0.0 1.7 0.00 0.00 0.00 99 1014.6
20260901090656 74 319 0.0 1.7 0.00 0.00 0.00 99 1014.6
20260901090152 74 323 0.0 0.9 0.00 0.00 0.00 99 1014.8
20260901085648 74 327 0.0 0.9 0.00 0.00 0.00 99 1014.6
20260901085143 74 326 0.0 0.9 0.00 0.00 0.00 99 1014.6
20260901084639 74 281 0.0 0.0 0.00 0.00 0.00 99 1014.6
20260901084135 74 281 0.0 0.9 0.00 0.00 0.00 99 1014.5
20260901083630 74 281 0.0 0.0 0.00 0.00 0.00 99 1014.5
20260901083128 75 281 0.0 0.0 0.00 0.00 0.00 99 1014.7
20260901082623 75 281 0.0 0.0 0.00 0.00 0.00 99 1014.6
20260901082118 75 281 0.0 0.0 0.00 0.00 0.00 99 1014.4
20260901081614 75 281 0.0 0.0 0.00 0.00 0.00 99 1014.6
20260901081114 75 280 0.0 0.0 0.00 0.00 0.00 99 1014.4
20260901080608 75 280 0.0 0.0 0.00 0.00 0.00 99 1014.4
20260901080107 76 269 0.0 0.0 0.00 0.00 0.00 99 1014.5
20260901075603 76 226 0.0 0.0 0.00 0.00 0.00 99 1014.4
20260901075102 76 226 0.9 0.9 0.00 0.00 0.00 99 1014.3
20260901074601 76 225 0.9 1.7 0.00 0.00 0.00 99 1014.4
20260901074057 76 225 1.7 2.6 0.00 0.00 0.00 99 1014.5
20260901073554 76 237 1.7 1.7 0.00 0.00 0.00 99 1014.5
20260901073053 76 254 0.0 0.0 0.00 0.00 0.00 99 1014.5
20260901072549 76 254 0.0 0.0 0.00 0.00 0.00 99 1014.5
20260901072043 76 271 0.0 0.0 0.00 0.00 0.00 99 1014.8
20260901071538 76 271 0.0 0.0 0.00 0.00 0.00 99 1014.8
20260901071036 76 271 0.0 0.0 0.00 0.00 0.00 99 1014.6
20260901070532 76 271 0.0 0.0 0.00 0.00 0.00 99 1014.6
20260901070027 76 271 0.0 0.0 0.00 0.00 0.00 99 1014.6
20260901065521 76 272 0.0 0.0 0.00 0.00 0.00 99 1014.7
20260901065015 76 272 0.0 0.0 0.00 0.00 0.00 99 1014.9
20260901064507 76 272 0.0 0.0 0.00 0.00 0.00 99 1014.7
20260901064004 76 272 0.0 0.0 0.00 0.00 0.00 99 1015.1
20260901063500 77 272 0.0 0.0 0.00 0.00 0.00 98 1015.0
20260901062955 77 272 0.0 0.0 0.00 0.00 0.00 98 1015.0
20260901062451 77 272 0.0 0.0 0.00 0.00 0.00 98 1015.0
20260901061947 77 272 0.0 0.0 0.00 0.00 0.00 98 1015.1
20260901061443 77 272 0.0 0.0 0.00 0.00 0.00 98 1015.0
20260901060942 77 272 0.0 0.0 0.00 0.00 0.00 97 1014.9
20260901060437 78 272 0.0 0.0 0.00 0.00 0.00 97 1014.8
20260901055932 78 272 0.0 0.0 0.00 0.00 0.00 97 1015.0
20260901055429 77 272 0.0 0.0 0.00 0.00 0.00 97 1014.7
20260901054925 77 272 0.0 0.0 0.00 0.00 0.00 98 1014.8
20260901054422 77 272 0.0 0.0 0.00 0.00 0.00 98 1014.8
20260901053918 77 272 0.0 0.0 0.00 0.00 0.00 98 1014.7
20260901053413 77 272 0.0 0.0 0.00 0.00 0.00 98 1014.8
20260901052908 77 272 0.0 0.0 0.00 0.00 0.00 98 1014.8
20260901052403 78 272 0.0 0.0 0.00 0.00 0.00 98 1014.8
20260901051902 78 272 0.0 0.0 0.00 0.00 0.00 98 1014.9
20260901051357 78 272 0.0 0.0 0.00 0.00 0.00 98 1014.7
20260901050852 77 272 0.0 0.0 0.00 0.00 0.00 98 1014.6
20260901050348 78 272 0.0 0.0 0.00 0.00 0.00 98 1014.6
20260901045843 77 272 0.0 0.0 0.00 0.00 0.00 98 1014.5
20260901045342 77 272 0.0 0.0 0.00 0.00 0.00 98 1014.6
20260901044838 78 272 0.0 0.0 0.00 0.00 0.00 98 1014.6
20260901044334 78 272 0.0 0.0 0.00 0.00 0.00 98 1014.5
20260901043829 78 273 0.0 0.0 0.00 0.00 0.00 98 1014.4
20260901043325 78 273 0.0 0.0 0.00 0.00 0.00 97 1014.4
20260901042824 78 272 0.0 0.0 0.00 0.00 0.00 97 1014.5
20260901042319 78 273 0.0 0.0 0.00 0.00 0.00 96 1014.4
20260901041815 78 272 0.0 0.0 0.00 0.00 0.00 96 1014.3
20260901041310 79 272 0.0 0.0 0.00 0.00 0.00 95 1014.1
20260901040804 79 273 0.0 0.0 0.00 0.00 0.00 95 1014.1
20260901040303 79 273 0.0 0.0 0.00 0.00 0.00 97 1014.1
20260901035803 78 273 0.0 0.0 0.00 0.00 0.00 97 1014.0
20260901035305 79 273 0.0 0.0 0.00 0.00 0.00 96 1014.2
20260901034801 78 273 0.0 0.0 0.00 0.00 0.00 95 1014.0
20260901034256 79 272 0.0 0.0 0.00 0.00 0.00 95 1014.2
20260901033755 79 272 0.0 0.0 0.00 0.00 0.00 95 1014.1
20260901033255 79 273 0.0 0.0 0.00 0.00 0.00 95 1014.2
20260901032753 79 273 0.0 0.0 0.00 0.00 0.00 95 1014.2
20260901032248 79 272 0.0 0.0 0.00 0.00 0.00 94 1014.1
20260901031743 79 272 0.0 0.0 0.00 0.00 0.00 94 1014.1
20260901031239 80 272 0.0 0.0 0.00 0.00 0.00 93 1014.3
20260901030733 80 272 0.0 0.0 0.00 0.00 0.00 92 1014.3
20260901030228 81 272 0.0 0.0 0.00 0.00 0.00 91 1014.0
20260901025722 81 272 0.0 0.0 0.00 0.00 0.00 90 1014.1
20260901025217 81 272 0.0 0.0 0.00 0.00 0.00 90 1014.1
20260901024712 81 275 0.0 0.0 0.00 0.00 0.00 90 1014.2
20260901024211 82 275 0.0 0.0 0.00 0.00 0.00 90 1014.1
20260901023709 82 275 0.0 0.0 0.00 0.00 0.00 89 1014.3
20260901023204 82 275 0.0 0.0 0.00 0.00 0.00 90 1014.3
20260901022700 82 275 0.0 0.0 0.00 0.00 0.00 89 1014.2
20260901022155 82 275 0.0 0.0 0.00 0.00 0.00 89 1014.2
20260901021650 81 275 0.0 0.0 0.00 0.00 0.00 90 1014.2
20260901021145 81 275 0.0 0.0 0.00 0.00 0.00 90 1014.3
20260901020641 82 275 0.0 0.0 0.00 0.00 0.00 89 1014.2
20260901020137 82 275 0.0 0.0 0.00 0.00 0.00 89 1014.0
20260901015632 82 275 0.0 0.0 0.00 0.00 0.00 88 1013.7
20260901015131 82 275 0.0 0.0 0.00 0.00 0.00 87 1013.9
20260901014626 83 275 0.0 0.0 0.00 0.00 0.00 87 1014.0
20260901014122 82 275 0.0 0.0 0.00 0.00 0.00 88 1013.7
20260901013618 82 275 0.0 0.0 0.00 0.00 0.00 88 1013.9
20260901013114 82 275 0.0 0.0 0.00 0.00 0.00 88 1013.7
20260901012613 83 275 0.0 0.0 0.00 0.00 0.00 86 1013.5
20260901012108 84 275 0.0 0.0 0.00 0.00 0.00 85 1013.4
20260901011605 84 275 0.0 0.0 0.00 0.00 0.00 84 1013.4
20260901011103 85 275 0.0 0.0 0.00 0.00 0.00 83 1013.2
20260901010558 85 275 0.0 0.0 0.00 0.00 0.00 82 1013.1
20260901010056 86 275 0.0 0.0 0.00 0.00 0.00 82 1013.3
20260901005552 86 275 0.0 0.0 0.00 0.00 0.00 80 1013.4
20260901005047 86 275 0.0 0.0 0.00 0.00 0.00 80 1013.4
20260901004546 86 275 0.0 0.0 0.00 0.00 0.00 81 1013.3
20260901004041 86 275 0.0 0.0 0.00 0.00 0.00 82 1013.2
20260901003536 87 275 0.0 0.0 0.00 0.00 0.00 81 1013.2
20260901003034 87 275 0.0 0.0 0.00 0.00 0.00 80 1013.3
20260901002534 88 275 0.0 0.0 0.00 0.00 0.00 78 1013.1
20260901002029 88 275 0.0 0.0 0.00 0.00 0.00 78 1013.1
20260901001524 88 275 0.0 0.0 0.00 0.00 0.00 76 1013.1
20260901001019 89 275 0.0 0.0 0.00 0.00 0.00 76 1013.4
20260901000514 89 275 0.0 0.0 0.00 0.00 0.00 75 1013.1
20260901000010 89 276 0.0 0.0 0.00 0.00 0.00 75 1013.3
20260831235503 89 276 0.0 0.9 0.00 0.00 0.00 74 1013.3
20260831234959 89 272 0.9 1.7 0.00 0.00 0.00 74 1013.3
20260831234453 90 259 1.7 2.6 0.00 0.00 0.00 71 1013.1
20260831233948 91 229 1.7 4.3 0.00 0.00 0.00 71 1012.9
20260831233443 91 234 2.6 2.6 0.00 0.00 0.00 71 1013.1
20260831232939 91 221 3.5 4.3 0.00 0.00 0.00 71 1013.0
20260831232435 92 215 2.6 4.3 0.00 0.00 0.00 71 1013.1
20260831231930 92 241 2.6 5.2 0.00 0.00 0.00 70 1013.2
20260831231426 93 282 2.6 2.6 0.00 0.00 0.00 69 1013.1
20260831230922 93 269 0.9 1.7 0.00 0.00 0.00 68 1013.1
20260831230417 93 235 2.6 4.3 0.00 0.00 0.00 67 1013.1
20260831225911 93 229 2.6 2.6 0.00 0.00 0.00 66 1012.9
20260831225407 93 277 0.9 4.3 0.00 0.00 0.00 66 1013.0
20260831224902 93 206 2.6 2.6 0.00 0.00 0.00 65 1013.1
20260831224401 94 283 1.7 2.6 0.00 0.00 0.00 64 1012.9
20260831223856 94 239 2.6 4.3 0.00 0.00 0.00 63 1012.9
20260831223352 94 231 2.6 4.3 0.00 0.00 0.00 63 1013.0
20260831222849 93 228 2.6 4.3 0.00 0.00 0.00 64 1013.0
20260831222344 94 233 1.7 2.6 0.00 0.00 0.00 64 1013.0
20260831221839 95 226 3.5 5.2 0.00 0.00 0.00 63 1013.1
20260831221335 94 235 1.7 4.3 0.00 0.00 0.00 63 1013.0
20260831220829 94 217 2.6 4.3 0.00 0.00 0.00 63 1013.0
20260831220325 93 189 2.6 4.3 0.00 0.00 0.00 64 1012.9
20260831215820 94 218 2.6 5.2 0.00 0.00 0.00 64 1013.0
20260831215316 93 279 2.6 5.2 0.00 0.00 0.00 65 1013.0
20260831214812 93 239 6.1 7.0 0.00 0.00 0.00 64 1012.8
20260831214310 94 254 0.9 6.1 0.00 0.00 0.00 65 1012.9
20260831213805 94 190 5.2 7.8 0.00 0.00 0.00 63 1012.8
20260831213301 94 264 0.9 5.2 0.00 0.00 0.00 66 1012.9
20260831212756 94 202 4.3 6.1 0.00 0.00 0.00 66 1013.2
20260831212253 95 234 2.6 5.2 0.00 0.00 0.00 64 1013.0
20260831211751 94 262 0.9 4.3 0.00 0.00 0.00 63 1012.9
20260831211246 95 260 2.6 4.3 0.00 0.00 0.00 60 1012.9
20260831210740 95 290 0.9 2.6 0.00 0.00 0.00 62 1012.9
20260831210236 94 279 0.9 4.3 0.00 0.00 0.00 63 1013.0
20260831205735 94 260 2.6 2.6 0.00 0.00 0.00 59 1013.1
20260831205233 95 171 4.3 5.2 0.00 0.00 0.00 60 1013.1
20260831204732 94 236 2.6 6.1 0.00 0.00 0.00 61 1013.1
20260831204231 93 263 2.6 5.2 0.00 0.00 0.00 63 1013.2
20260831203725 93 251 4.3 5.2 0.00 0.00 0.00 64 1013.3
20260831203226 93 207 4.3 6.1 0.00 0.00 0.00 66 1013.2
20260831202724 93 229 7.0 8.7 0.00 0.00 0.00 66 1013.1
20260831202219 93 230 5.2 7.0 0.00 0.00 0.00 67 1013.1
20260831201718 93 208 4.3 7.8 0.00 0.00 0.00 69 1013.1
20260831201213 94 207 5.2 7.0 0.00 0.00 0.00 67 1013.2
20260831200708 94 222 4.3 6.1 0.00 0.00 0.00 68 1013.1
20260831200208 95 239 3.5 4.3 0.00 0.00 0.00 63 1013.1
20260831195704 95 213 2.6 2.6 0.00 0.00 0.00 65 1013.3
20260831195200 93 281 0.9 4.3 0.00 0.00 0.00 66 1013.1
20260831194654 93 245 1.7 1.7 0.00 0.00 0.00 66 1013.1
20260831194149 93 225 0.9 2.6 0.00 0.00 0.00 66 1013.1
20260831193643 93 248 2.6 5.2 0.00 0.00 0.00 65 1013.2
20260831193139 92 238 1.7 4.3 0.00 0.00 0.00 66 1013.2
20260831192634 92 256 1.7 4.3 0.00 0.00 0.00 66 1013.2
20260831192130 92 211 3.5 7.0 0.00 0.00 0.00 65 1013.1
20260831191625 92 228 3.5 5.2 0.00 0.00 0.00 68 1013.1
20260831191121 92 169 2.6 5.2 0.00 0.00 0.00 68 1013.1
20260831190616 92 199 3.5 6.1 0.00 0.00 0.00 67 1013.0
20260831190115 93 190 4.3 7.0 0.00 0.00 0.00 65 1013.2
20260831185611 94 250 1.7 2.6 0.00 0.00 0.00 62 1013.2
20260831185106 92 222 3.5 6.1 0.00 0.00 0.00 66 1013.3
20260831184605 93 210 4.3 5.2 0.00 0.00 0.00 64 1013.2
20260831184101 92 238 5.2 6.1 0.00 0.00 0.00 67 1013.2
20260831183600 92 216 3.5 5.2 0.00 0.00 0.00 65 1013.3
20260831183054 92 287 1.7 5.2 0.00 0.00 0.00 65 1013.2
20260831182549 91 212 4.3 5.2 0.00 0.00 0.00 67 1013.3
20260831182044 92 260 4.3 7.0 0.00 0.00 0.00 68 1013.1
20260831181539 92 228 3.5 5.2 0.00 0.00 0.00 65 1013.1
20260831181038 91 279 0.9 4.3 0.00 0.00 0.00 65 1013.2
20260831180534 91 248 2.6 4.3 0.00 0.00 0.00 66 1013.1
20260831180028 91 215 2.6 4.3 0.00 0.00 0.00 68 1013.0
20260831175524 92 170 1.7 5.2 0.00 0.00 0.00 67 1012.9
20260831175021 91 226 1.7 1.7 0.00 0.00 0.00 66 1013.2
20260831174520 90 246 1.7 2.6 0.00 0.00 0.00 68 1013.1
20260831174015 90 279 0.9 5.2 0.00 0.00 0.00 68 1013.3
20260831173513 90 192 1.7 4.3 0.00 0.00 0.00 67 1013.0
20260831173010 92 220 0.9 4.3 0.00 0.00 0.00 64 1013.2
20260831172504 90 155 1.7 2.6 0.00 0.00 0.00 67 1013.1
20260831171959 89 162 2.6 5.2 0.00 0.00 0.00 70 1013.3
20260831171455 89 228 2.6 5.2 0.00 0.00 0.00 70 1013.2
20260831170952 89 278 0.9 2.6 0.00 0.00 0.00 70 1013.1
20260831170448 89 222 1.7 2.6 0.00 0.00 0.00 69 1013.2
20260831165945 88 230 2.6 2.6 0.00 0.00 0.00 70 1013.0
20260831165440 88 285 0.9 2.6 0.00 0.00 0.00 69 1013.1
20260831164937 89 175 2.6 4.3 0.00 0.00 0.00 68 1013.0
20260831164432 89 234 2.6 4.3 0.00 0.00 0.00 69 1012.9
20260831163927 87 172 2.6 6.1 0.00 0.00 0.00 70 1012.8
20260831163422 86 199 3.5 4.3 0.00 0.00 0.00 70 1012.8
20260831162921 86 230 1.7 4.3 0.00 0.00 0.00 71 1012.8
20260831162416 87 170 2.6 4.3 0.00 0.00 0.00 68 1012.7
20260831161914 86 255 2.6 7.0 0.00 0.00 0.00 71 1012.8
20260831161411 86 268 2.6 2.6 0.00 0.00 0.00 69 1012.8
20260831160906 85 246 2.6 4.3 0.00 0.00 0.00 71 1012.9
20260831160401 85 211 2.6 4.3 0.00 0.00 0.00 71 1012.8
20260831155856 86 208 2.6 4.3 0.00 0.00 0.00 70 1012.8
20260831155351 86 290 2.6 2.6 0.00 0.00 0.00 70 1012.6
20260831154846 84 264 0.0 0.9 0.00 0.00 0.00 72 1012.7
20260831154343 84 282 0.0 1.7 0.00 0.00 0.00 73 1012.9
20260831153841 85 253 0.9 1.7 0.00 0.00 0.00 71 1012.7
20260831153337 85 266 0.9 1.7 0.00 0.00 0.00 69 1012.5
20260831152833 86 268 2.6 5.2 0.00 0.00 0.00 69 1013.0
20260831152329 86 272 1.7 2.6 0.00 0.00 0.00 70 1012.9
20260831151824 86 251 2.6 6.1 0.00 0.00 0.00 68 1012.8
20260831151322 86 105 1.7 2.6 0.00 0.00 0.00 69 1012.9
20260831150818 85 297 2.6 4.3 0.00 0.00 0.00 69 1013.0
20260831150314 84 210 2.6 5.2 0.00 0.00 0.00 70 1012.9
20260831145812 83 285 2.6 5.2 0.00 0.00 0.00 71 1013.0
20260831145309 83 233 3.5 6.1 0.00 0.00 0.00 71 1012.9
20260831144804 82 233 5.2 7.0 0.00 0.00 0.00 72 1012.9
20260831144301 83 206 5.2 9.6 0.00 0.00 0.00 70 1013.0
20260831143800 83 221 3.5 7.0 0.00 0.00 0.00 70 1013.0
20260831143255 82 234 1.7 6.1 0.00 0.00 0.00 71 1012.8
20260831142750 82 230 4.3 6.1 0.00 0.00 0.00 71 1012.8
20260831142246 82 219 2.6 5.2 0.00 0.00 0.00 71 1012.6
20260831141745 82 251 2.6 6.1 0.00 0.00 0.00 72 1012.7